Weather in Lexington

United States     38°02′53″N   84°30′01″W
temp.,
°C
wind,
m/s
gust,
m/s
humid.,
%
clouds,
%
prec.,
mm/h
press.,
hPa
HPBL,
m
17 may, mon
mon1723:00+13ese3683100 0.0 1022117
02:00+13ese3490100 0.3 102174
05:00+13ese3595100 1.1 1021124
08:00+13e2396100 1.9 1022117
11:00+14e3595100 0.1 1022174
14:00+20ene0376100 0.1 1022785
17:00+20e2275100 0.3 1021578
20:00+17ene4692100 0.9 1021154
18 may, tue
tue1823:00+15ese41094100 0.0 1022228
02:00+14ese4894100 0.1 1021169
05:00+14e3595100 0.6 102191
08:00+15ese4794100 0.9 1023163
11:00+18se3688100 0.5 1024253
14:00+18sw41088100 2.3 1024865
17:00+16sse3993100 0.6 1024452
20:00+15se5129496 1.1 1023365
19 may, wed
wed1923:00+15se4129465 0.0 1024264
02:00+14se41193100 0.0 1023211
05:00+15se489281 0.0 1023166
08:00+16sse378965 0.0 1025157
11:00+21s587458 0.0 1026624
14:00+24ssw56705 0.9 1025989
17:00+25s35628 0.9 10231209
20:00+21e33805 1.8 102342
20 may, thu
thu2023:00+18ese3583100 0.0 102573
02:00+18se348359 0.0 102463
05:00+16s3385100 0.0 102526
08:00+19s238355 0.0 102782
11:00+23sw3567100 0.0 1028586
14:00+26wsw3359100 0.0 10271213
17:00+25sse226496 0.1 1026965
20:00+21sse228129 0.1 102629
21 may, fri
fri2123:00+18ese22858 0.0 102611
02:00+17sse228496 0.0 102711
05:00+16s229074 0.0 102814
08:00+18s228622 0.0 102978
11:00+24sw227176 0.1 1030414
14:00+26wsw326090 1.4 10281366
17:00+27w236059 0.0 10271365
20:00+23nw2280100 0.1 102716